,,Stat5,,Stat1,,Stat2,,Stat3,,Stat4,,Wind1,,Wind1,
time,status,PA1M_AVG,status,PR1M_SUM,status,RH1M_AVG,status,SR1M_AVG,status,TA1M_AVG,status,W1dAve1m,status,W1sAve1m,
2000-05-02, 00:00:00,VALID,919.515,VALID,0,VALID,96.7577,VALID,0,VALID,19.8058,VALID,78,VALID,0.513021,
2000-05-02, 00:01:00,VALID,919.515,VALID,0,VALID,96.9026,VALID,0,VALID,19.825,VALID,78,VALID,0.698269,
2000-05-02, 00:02:00,VALID,919.508,VALID,0,VALID,97.1519,VALID,-0.0169808,VALID,19.8796,VALID,75,VALID,0.724724,
2000-05-02, 00:03:00,VALID,919.51,VALID,0,VALID,97.0934,VALID,-0.0169808,VALID,19.9087,VALID,65,VALID,0.506811,
2000-05-02, 00:04:00,VALID,919.496,VALID,0,VALID,96.9217,VALID,0,VALID,19.9386,VALID,66,VALID,0.403429,
2000-05-02, 00:05:00,VALID,919.475,VALID,0,VALID,96.5453,VALID,-0.0169808,VALID,19.9346,VALID,313,VALID,0.186384,
2000-05-02, 00:06:00,VALID,919.453,VALID,0,VALID,95.3322,VALID,-0.0339617,VALID,19.8891,VALID,305,VALID,0,
2000-05-02, 00:07:00,VALID,919.42,VALID,0,VALID,95.3525,VALID,0,VALID,19.8796,VALID,70,VALID,0.269531,
2000-05-02, 00:08:00,VALID,919.404,VALID,0,VALID,95.5178,VALID,0.0339617,VALID,19.8727,VALID,89,VALID,0.559821,
2000-05-02, 00:09:00,VALID,919.402,VALID,0,VALID,95.2355,VALID,0.0169808,VALID,19.8175,VALID,86,VALID,0.135851,
2000-05-02, 00:10:00,VALID,919.408,VALID,0,VALID,95.7633,VALID,0.0509425,VALID,19.824,VALID,82,VALID,0,
2000-05-02, 00:11:00,VALID,919.416,VALID,0,VALID,95.4644,VALID,0.0169808,VALID,19.8178,VALID,96,VALID,0,
2000-05-02, 00:12:00,VALID,919.425,VALID,0,VALID,94.6239,VALID,0,VALID,19.7661,VALID,92,VALID,0,
2000-05-02, 00:13:00,VALID,919.412,VALID,0,VALID,94.9596,VALID,0.0509425,VALID,19.7082,VALID,91,VALID,0,
2000-05-02, 00:14:00,VALID,919.391,VALID,0,VALID,95.0791,VALID,0.0679233,VALID,19.656,VALID,91,VALID,0,
2000-05-02, 00:15:00,VALID,919.375,VALID,0,VALID,95.6119,VALID,0.0509425,VALID,19.617,VALID,89,VALID,0,
2000-05-02, 00:16:00,VALID,919.345,VALID,0,VALID,95.603,VALID,0.0509425,VALID,19.5849,VALID,86,VALID,0,
2000-05-02, 00:17:00,VALID,919.313,VALID,0,VALID,95.3945,VALID,0.0509425,VALID,19.53,VALID,97,VALID,0.523438,
2000-05-02, 00:18:00,VALID,919.298,VALID,0,VALID,95.673,VALID,0.0169808,VALID,19.5553,VALID,37,VALID,0.791016,
2000-05-02, 00:19:00,VALID,919.286,VALID,0,VALID,95.4454,VALID,0.0339617,VALID,19.7082,VALID,52,VALID,0.503038,
2000-05-02, 00:20:00,VALID,919.272,VALID,0,VALID,94.7918,VALID,0.0339617,VALID,19.8083,VALID,75,VALID,0.0776515,
2000-05-02, 00:21:00,VALID,919.269,VALID,0,VALID,94.0466,VALID,0.0509425,VALID,19.7787,VALID,82,VALID,0.0347451,
2000-05-02, 00:22:00,VALID,919.277,VALID,0,VALID,94.6404,VALID,0.0509425,VALID,19.7725,VALID,59,VALID,0.0334821,
2000-05-02, 00:23:00,VALID,919.272,VALID,0,VALID,94.7129,VALID,0.0339617,VALID,19.7792,VALID,61,VALID,0.000459559,
2000-05-02, 00:24:00,VALID,919.269,VALID,0,VALID,94.9774,VALID,0.0679233,VALID,19.7825,VALID,37,VALID,0.000422297,
2000-05-02, 00:25:00,VALID,919.241,VALID,0,VALID,94.3327,VALID,0.0169808,VALID,19.7208,VALID,80,VALID,0,
2000-05-02, 00:26:00,VALID,919.231,VALID,0,VALID,95.0588,VALID,0.0169808,VALID,19.7082,VALID,77,VALID,0.502197,
2000-05-02, 00:27:00,VALID,919.23,VALID,0,VALID,95.1834,VALID,0.0509425,VALID,19.7243,VALID,84,VALID,0.904948,
2000-05-02, 00:28:00,VALID,919.21,VALID,0,VALID,94.9787,VALID,0.0339617,VALID,19.737,VALID,78,VALID,0.88737,
2000-05-02, 00:29:00,VALID,919.193,VALID,0,VALID,95.1605,VALID,0,VALID,19.7601,VALID,84,VALID,0.814867,
2000-05-02, 00:30:00,VALID,919.192,VALID,0,VALID,94.7015,VALID,0.0509425,VALID,19.7661,VALID,91,VALID,0.516036,
2000-05-02, 00:31:00,VALID,919.175,VALID,0,VALID,94.6252,VALID,0.0509425,VALID,19.7276,VALID,77,VALID,0.344866,
2000-05-02, 00:32:00,VALID,919.146,VALID,0,VALID,95.3297,VALID,0.0339617,VALID,19.7499,VALID,4,VALID,0.185662,
2000-05-02, 00:33:00,VALID,919.122,VALID,0,VALID,94.6125,VALID,0.0339617,VALID,19.7534,VALID,346,VALID,0,
2000-05-02, 00:34:00,VALID,919.111,VALID,0,VALID,94.9787,VALID,0.0849042,VALID,19.7469,VALID,355,VALID,0.255068,
2000-05-02, 00:35:00,VALID,919.091,VALID,0,VALID,94.9914,VALID,0.0509425,VALID,19.7536,VALID,80,VALID,0.448486,
2000-05-02, 00:36:00,VALID,919.077,VALID,0,VALID,94.1216,VALID,0.0169808,VALID,19.6664,VALID,80,VALID,0.363064,
2000-05-02, 00:37:00,VALID,919.063,VALID,0,VALID,95.6793,VALID,-0.0169808,VALID,19.6664,VALID,72,VALID,0.128689,
2000-05-02, 00:38:00,VALID,919.043,VALID,0,VALID,95.4784,VALID,-0.0509425,VALID,19.6063,VALID,68,VALID,0.00189394,
2000-05-02, 00:39:00,VALID,919.03,VALID,0,VALID,95.9171,VALID,-0.0339617,VALID,19.5832,VALID,75,VALID,0.476357,
2000-05-02, 00:40:00,VALID,919.013,VALID,0,VALID,95.6666,VALID,-0.0849042,VALID,19.5615,VALID,75,VALID,0.53683,
2000-05-02, 00:41:00,VALID,919.017,VALID,0,VALID,95.8917,VALID,-0.0679233,VALID,19.5349,VALID,69,VALID,0.134651,
2000-05-02, 00:42:00,VALID,919.006,VALID,0,VALID,95.9388,VALID,-0.0509425,VALID,19.5384,VALID,88,VALID,0.11402,
2000-05-02, 00:43:00,VALID,919.014,VALID,0,VALID,95.7595,VALID,-0.0679233,VALID,19.5285,VALID,85,VALID,0,
2000-05-02, 00:44:00,VALID,918.998,VALID,0,VALID,95.9756,VALID,-0.0339617,VALID,19.5449,VALID,39,VALID,0,
2000-05-02, 00:45:00,VALID,918.978,VALID,0,VALID,95.7111,VALID,-0.0679233,VALID,19.5322,VALID,43,VALID,0,
2000-05-02, 00:46:00,VALID,918.97,VALID,0,VALID,95.7976,VALID,-0.0509425,VALID,19.5123,VALID,48,VALID,0,
2000-05-02, 00:47:00,VALID,918.927,VALID,0,VALID,96.2261,VALID,-0.0339617,VALID,19.5223,VALID,37,VALID,0,
2000-05-02, 00:48:00,VALID,918.894,VALID,0,VALID,96.0163,VALID,-0.101885,VALID,19.526,VALID,34,VALID,0,
2000-05-02, 00:49:00,VALID,918.858,VALID,0,VALID,96.0125,VALID,-0.0849042,VALID,19.5061,VALID,34,VALID,0,
2000-05-02, 00:50:00,VALID,918.816,VALID,0,VALID,96.5631,VALID,-0.0169808,VALID,19.5481,VALID,34,VALID,0,
2000-05-02, 00:51:00,VALID,918.788,VALID,0,VALID,96.7017,VALID,-0.0509425,VALID,19.5481,VALID,34,VALID,0,
2000-05-02, 00:52:00,VALID,918.772,VALID,0,VALID,96.5962,VALID,-0.0509425,VALID,19.5481,VALID,34,VALID,0,
2000-05-02, 00:53:00,VALID,918.755,VALID,0,VALID,96.5809,VALID,-0.0339617,VALID,19.5382,VALID,34,VALID,0,
2000-05-02, 00:54:00,VALID,918.744,VALID,0,VALID,95.9298,VALID,-0.0339617,VALID,19.4932,VALID,34,VALID,0,
2000-05-02, 00:55:00,VALID,918.737,VALID,0,VALID,95.6857,VALID,-0.0339617,VALID,19.4415,VALID,34,VALID,0,
2000-05-02, 00:56:00,VALID,918.748,VALID,0,VALID,95.6755,VALID,-0.0849042,VALID,19.4057,VALID,34,VALID,0,
2000-05-02, 00:57:00,VALID,918.747,VALID,0,VALID,96.0189,VALID,-0.0679233,VALID,19.4002,VALID,34,VALID,0,
2000-05-02, 00:58:00,VALID,918.731,VALID,0,VALID,95.9883,VALID,-0.0509425,VALID,19.3543,VALID,34,VALID,0,
2000-05-02, 00:59:00,VALID,918.718,VALID,0,VALID,95.7035,VALID,-0.0679233,VALID,19.2964,VALID,34,VALID,0,
2000-05-02, 01:00:00,VALID,918.684,VALID,0,VALID,95.9629,VALID,-0.0339617,VALID,19.2705,VALID,34,VALID,0,
2000-05-02, 01:01:00,VALID,918.661,VALID,0,VALID,96.2668,VALID,-0.0509425,VALID,19.2606,VALID,34,VALID,0,
2000-05-02, 01:02:00,VALID,918.643,VALID,0,VALID,96.441,VALID,-0.0509425,VALID,19.2544,VALID,34,VALID,0,
2000-05-02, 01:03:00,VALID,918.626,VALID,0,VALID,96.5733,VALID,0,VALID,19.2347,VALID,34,VALID,0,
2000-05-02, 01:04:00,VALID,918.613,VALID,0,VALID,96.8263,VALID,-0.0339617,VALID,19.2315,VALID,34,VALID,0,
2000-05-02, 01:05:00,VALID,918.603,VALID,0,VALID,96.8696,VALID,-0.0169808,VALID,19.2154,VALID,34,VALID,0,
2000-05-02, 01:06:00,VALID,918.602,VALID,0,VALID,97.1697,VALID,-0.0169808,VALID,19.2057,VALID,34,VALID,0,
2000-05-02, 01:07:00,VALID,918.579,VALID,0,VALID,97.3248,VALID,-0.0339617,VALID,19.1925,VALID,34,VALID,0,
2000-05-02, 01:08:00,VALID,918.574,VALID,0,VALID,97.073,VALID,-0.0169808,VALID,19.1374,VALID,34,VALID,0,
2000-05-02, 01:09:00,VALID,918.554,VALID,0,VALID,96.5415,VALID,-0.0509425,VALID,19.067,VALID,34,VALID,0,
2000-05-02, 01:10:00,VALID,918.536,VALID,0,VALID,96.6496,VALID,-0.0509425,VALID,19.0409,VALID,34,VALID,0,
2000-05-02, 01:11:00,VALID,918.529,VALID,0,VALID,96.6992,VALID,-0.0169808,VALID,19.025,VALID,34,VALID,0,
2000-05-02, 01:12:00,VALID,918.507,VALID,0,VALID,96.7984,VALID,-0.0339617,VALID,19.0026,VALID,34,VALID,0,
2000-05-02, 01:13:00,VALID,918.504,VALID,0,VALID,96.6865,VALID,-0.0339617,VALID,18.98,VALID,34,VALID,0,
2000-05-02, 01:14:00,VALID,918.486,VALID,0,VALID,96.9967,VALID,-0.0339617,VALID,18.9567,VALID,34,VALID,0,
2000-05-02, 01:15:00,VALID,918.488,VALID,0,VALID,97.3642,VALID,-0.0339617,VALID,18.9833,VALID,82,VALID,0,
2000-05-02, 01:16:00,VALID,918.479,VALID,0,VALID,97.0934,VALID,-0.0339617,VALID,18.9313,VALID,120,VALID,0,
2000-05-02, 01:17:00,VALID,918.466,VALID,0,VALID,96.1664,VALID,-0.0339617,VALID,18.8277,VALID,119,VALID,0,
2000-05-02, 01:18:00,VALID,918.436,VALID,0,VALID,95.7722,VALID,-0.0169808,VALID,18.7572,VALID,105,VALID,0,
2000-05-02, 01:19:00,VALID,918.407,VALID,0,VALID,96.2007,VALID,0,VALID,18.6762,VALID,99,VALID,0,
2000-05-02, 01:20:00,VALID,918.383,VALID,0,VALID,96.6152,VALID,0,VALID,18.6217,VALID,103,VALID,0,
2000-05-02, 01:21:00,VALID,918.371,VALID,0,VALID,97.0247,VALID,0,VALID,18.5728,VALID,104,VALID,0,
2000-05-02, 01:22:00,VALID,918.362,VALID,0,VALID,96.9878,VALID,0,VALID,18.5052,VALID,116,VALID,0,
2000-05-02, 01:23:00,VALID,918.354,VALID,0,VALID,97.5155,VALID,-0.0339617,VALID,18.5149,VALID,125,VALID,0.315578,
2000-05-02, 01:24:00,VALID,918.325,VALID,0,VALID,97.6859,VALID,0.0169808,VALID,18.5315,VALID,127,VALID,0.518914,
2000-05-02, 01:25:00,VALID,918.299,VALID,0,VALID,97.8398,VALID,-0.0509425,VALID,18.5244,VALID,129,VALID,0.473661,
2000-05-02, 01:26:00,VALID,918.285,VALID,0,VALID,98.0458,VALID,-0.0169808,VALID,18.5897,VALID,142,VALID,0.438189,
2000-05-02, 01:27:00,VALID,918.279,VALID,0,VALID,98.3256,VALID,-0.0169808,VALID,18.6607,VALID,141,VALID,0.32728,
2000-05-02, 01:28:00,VALID,918.263,VALID,0,VALID,98.5913,VALID,-0.0509425,VALID,18.7576,VALID,134,VALID,0.39527,
2000-05-02, 01:29:00,VALID,918.264,VALID,0,VALID,98.6333,VALID,-0.0339617,VALID,18.8151,VALID,125,VALID,0.2146,
2000-05-02, 01:30:00,VALID,918.249,VALID,0,VALID,98.6447,VALID,-0.0509425,VALID,18.8675,VALID,125,VALID,0,
2000-05-02, 01:31:00,VALID,918.24,VALID,0,VALID,98.5494,VALID,-0.0339617,VALID,18.8965,VALID,128,VALID,0,
2000-05-02, 01:32:00,VALID,918.248,VALID,0,VALID,98.3065,VALID,-0.0849042,VALID,18.8841,VALID,186,VALID,0,
2000-05-02, 01:33:00,VALID,918.24,VALID,0,VALID,97.9492,VALID,-0.0339617,VALID,18.8155,VALID,207,VALID,0,
2000-05-02, 01:34:00,VALID,918.247,VALID,0,VALID,97.9085,VALID,-0.0509425,VALID,18.7927,VALID,207,VALID,0,
2000-05-02, 01:35:00,VALID,918.247,VALID,0,VALID,97.5232,VALID,-0.0169808,VALID,18.7606,VALID,195,VALID,0,
2000-05-02, 01:36:00,VALID,918.251,VALID,0,VALID,96.4944,VALID,-0.101885,VALID,18.6642,VALID,138,VALID,0.1231,
2000-05-02, 01:37:00,VALID,918.253,VALID,0,VALID,96.7551,VALID,0.0339617,VALID,18.6406,VALID,110,VALID,0.797931,
2000-05-02, 01:38:00,VALID,918.261,VALID,0,VALID,97.4698,VALID,0.0339617,VALID,18.6752,VALID,103,VALID,1.12207,
2000-05-02, 01:39:00,VALID,918.248,VALID,0,VALID,98.0394,VALID,0.0509425,VALID,18.7694,VALID,99,VALID,1.42839,
2000-05-02, 01:40:00,VALID,918.247,VALID,0,VALID,97.9568,VALID,0.0679233,VALID,18.7654,VALID,101,VALID,1.21832,
2000-05-02, 01:41:00,VALID,918.251,VALID,0,VALID,97.78,VALID,0.0339617,VALID,18.7562,VALID,96,VALID,1.19792,
2000-05-02, 01:42:00,VALID,918.251,VALID,0,VALID,97.7686,VALID,0.0679233,VALID,18.7853,VALID,93,VALID,0.973684,
2000-05-02, 01:43:00,VALID,918.28,VALID,0,VALID,97.8818,VALID,0.0679233,VALID,18.8305,VALID,99,VALID,0.860937,
2000-05-02, 01:44:00,VALID,918.278,VALID,0,VALID,97.9008,VALID,0.0509425,VALID,18.873,VALID,102,VALID,0.723346,
2000-05-02, 01:45:00,VALID,918.287,VALID,0,VALID,97.8156,VALID,0.0509425,VALID,18.8854,VALID,101,VALID,0.493666,
2000-05-02, 01:46:00,VALID,918.286,VALID,0,VALID,97.8474,VALID,0.0339617,VALID,18.9242,VALID,95,VALID,0.789696,
2000-05-02, 01:47:00,VALID,918.285,VALID,0,VALID,97.808,VALID,0.0509425,VALID,18.9823,VALID,99,VALID,1.06812,
2000-05-02, 01:48:01,VALID,918.272,VALID,0,VALID,97.4863,VALID,0.0509425,VALID,19.0476,VALID,92,VALID,0.790582,
2000-05-02, 01:49:00,VALID,918.253,VALID,0,VALID,96.7742,VALID,0.0339617,VALID,19.0601,VALID,91,VALID,0.589193,
2000-05-02, 01:50:00,VALID,918.228,VALID,0,VALID,96.6496,VALID,0.0849042,VALID,19.0695,VALID,77,VALID,0.932055,
2000-05-02, 01:51:00,VALID,918.203,VALID,0,VALID,96.7526,VALID,0.0169808,VALID,19.1247,VALID,81,VALID,0.884252,
2000-05-02, 01:52:00,VALID,918.156,VALID,0,VALID,96.4919,VALID,0.0509425,VALID,19.1701,VALID,77,VALID,0.674107,
2000-05-02, 01:53:00,VALID,918.113,VALID,0,VALID,96.277,VALID,0.0169808,VALID,19.1761,VALID,55,VALID,0.459559,
2000-05-02, 01:54:00,VALID,918.091,VALID,0,VALID,96.1994,VALID,0.0169808,VALID,19.1923,VALID,42,VALID,0.511824,
2000-05-02, 01:55:00,VALID,918.089,VALID,0,VALID,96.0761,VALID,0,VALID,19.2539,VALID,56,VALID,0.736275,
2000-05-02, 01:56:01,VALID,918.077,VALID,0,VALID,95.8179,VALID,0,VALID,19.3091,VALID,85,VALID,0.766846,
2000-05-02, 01:57:01,VALID,918.06,VALID,0,VALID,95.2038,VALID,0.0169808,VALID,19.322,VALID,87,VALID,0.482856,
2000-05-02, 01:58:00,VALID,918.053,VALID,0,VALID,94.7727,VALID,0.0169808,VALID,19.2864,VALID,93,VALID,0.463759,
2000-05-02, 01:59:00,VALID,918.061,VALID,0,VALID,95.0346,VALID,0.0169808,VALID,19.2474,VALID,97,VALID,0.376184,
2000-05-02, 02:00:00,VALID,918.062,VALID,0,VALID,94.9227,VALID,0,VALID,19.2052,VALID,116,VALID,0.324424,
2000-05-02, 02:01:00,VALID,918.071,VALID,0,VALID,94.9901,VALID,0,VALID,19.1768,VALID,116,VALID,0.0542411,
2000-05-02, 02:02:00,VALID,918.085,VALID,0,VALID,95.3373,VALID,-0.0169808,VALID,19.1537,VALID,116,VALID,0,
2000-05-02, 02:03:00,VALID,918.103,VALID,0,VALID,95.1631,VALID,0,VALID,19.1185,VALID,107,VALID,0.0375845,
2000-05-02, 02:04:00,VALID,918.126,VALID,0,VALID,95.2267,VALID,0,VALID,19.0929,VALID,86,VALID,0.00232264,
2000-05-02, 02:05:01,VALID,918.139,VALID,0,VALID,95.4187,VALID,0.0169808,VALID,19.0862,VALID,88,VALID,0,
2000-05-02, 02:06:01,VALID,918.117,VALID,0,VALID,94.9291,VALID,0.0169808,VALID,19.0213,VALID,97,VALID,0,
2000-05-02, 02:07:00,VALID,918.108,VALID,0,VALID,94.8846,VALID,0.0339617,VALID,18.9632,VALID,97,VALID,0,
2000-05-02, 02:08:00,VALID,918.085,VALID,0,VALID,95.4517,VALID,0.0169808,VALID,18.9279,VALID,116,VALID,0,
2000-05-02, 02:09:00,VALID,918.065,VALID,0,VALID,95.7798,VALID,0.0169808,VALID,18.8983,VALID,118,VALID,0.162212,
2000-05-02, 02:10:00,VALID,918.062,VALID,0,VALID,95.8154,VALID,0.0509425,VALID,18.8663,VALID,101,VALID,0.769866,
2000-05-02, 02:11:00,VALID,918.054,VALID,0,VALID,96.4283,VALID,0.0339617,VALID,18.8794,VALID,103,VALID,0.574908,
2000-05-02, 02:12:00,VALID,918.034,VALID,0,VALID,96.2808,VALID,0.0169808,VALID,18.8633,VALID,101,VALID,0.516047,
2000-05-02, 02:13:00,VALID,918.027,VALID,0,VALID,96.4576,VALID,0.0339617,VALID,18.8563,VALID,99,VALID,0.692568,
2000-05-02, 02:14:01,VALID,918.027,VALID,0,VALID,97.0234,VALID,0,VALID,18.9112,VALID,99,VALID,0.673828,
2000-05-02, 02:15:01,VALID,918.049,VALID,0,VALID,96.778,VALID,0.0509425,VALID,18.95,VALID,100,VALID,0.837023,
2000-05-02, 02:16:00,VALID,918.07,VALID,0,VALID,96.3927,VALID,0.0339617,VALID,18.9694,VALID,85,VALID,1.03819,
2000-05-02, 02:17:00,VALID,918.095,VALID,0,VALID,96.5084,VALID,0.0169808,VALID,19.032,VALID,84,VALID,1.27012,
2000-05-02, 02:18:00,VALID,918.124,VALID,0,VALID,96.2147,VALID,0.0509425,VALID,19.0762,VALID,84,VALID,0.996711,
2000-05-02, 02:19:00,VALID,918.122,VALID,0,VALID,96.146,VALID,0,VALID,19.1281,VALID,87,VALID,0.790179,
2000-05-02, 02:20:00,VALID,918.117,VALID,0,VALID,95.9871,VALID,0.0169808,VALID,19.1567,VALID,88,VALID,0.925781,
2000-05-02, 02:21:00,VALID,918.082,VALID,0,VALID,95.6933,VALID,0,VALID,19.1861,VALID,89,VALID,0.881334,
2000-05-02, 02:22:00,VALID,918.064,VALID,0,VALID,95.4683,VALID,0,VALID,19.1858,VALID,82,VALID,0.745988,
2000-05-02, 02:23:01,VALID,918.023,VALID,0,VALID,95.5077,VALID,0.0339617,VALID,19.1861,VALID,83,VALID,0.805664,
2000-05-02, 02:24:01,VALID,917.982,VALID,0,VALID,95.6069,VALID,0,VALID,19.1833,VALID,80,VALID,0.826389,
2000-05-02, 02:25:00,VALID,917.941,VALID,0,VALID,95.453,VALID,0,VALID,19.1672,VALID,85,VALID,0.672309,
2000-05-02, 02:26:00,VALID,917.912,VALID,0,VALID,95.6895,VALID,0.0169808,VALID,19.1667,VALID,84,VALID,0.525568,
2000-05-02, 02:27:00,VALID,917.894,VALID,0,VALID,95.7887,VALID,0.0169808,VALID,19.1928,VALID,84,VALID,0.591488,
2000-05-02, 02:28:00,VALID,917.889,VALID,0,VALID,95.4886,VALID,0.0169808,VALID,19.2054,VALID,87,VALID,0.40692,
2000-05-02, 02:29:00,VALID,917.882,VALID,0,VALID,95.5166,VALID,0.0339617,VALID,19.2024,VALID,93,VALID,0.429688,
2000-05-02, 02:30:00,VALID,917.882,VALID,0,VALID,95.4581,VALID,0.0169808,VALID,19.1957,VALID,92,VALID,0,
2000-05-02, 02:31:00,VALID,917.877,VALID,0,VALID,95.2343,VALID,0,VALID,19.1928,VALID,92,VALID,0,
2000-05-02, 02:32:01,VALID,917.844,VALID,0,VALID,95.1656,VALID,0.0169808,VALID,19.1793,VALID,92,VALID,0,
2000-05-02, 02:33:01,VALID,917.838,VALID,0,VALID,95.2254,VALID,0.0169808,VALID,19.1508,VALID,92,VALID,0,
2000-05-02, 02:34:00,VALID,917.819,VALID,0,VALID,95.1567,VALID,0,VALID,19.1346,VALID,92,VALID,0,
2000-05-02, 02:35:00,VALID,917.808,VALID,0,VALID,94.6608,VALID,0.0169808,VALID,19.0956,VALID,92,VALID,0,
2000-05-02, 02:36:00,VALID,917.768,VALID,0,VALID,93.5278,VALID,0.0169808,VALID,19.0275,VALID,93,VALID,0.190378,
2000-05-02, 02:37:00,VALID,917.734,VALID,0,VALID,94.0453,VALID,0.0169808,VALID,18.9505,VALID,109,VALID,0,
2000-05-02, 02:38:00,VALID,917.732,VALID,0,VALID,95.0092,VALID,0,VALID,18.9152,VALID,104,VALID,0,
2000-05-02, 02:39:00,VALID,917.719,VALID,0,VALID,95.5522,VALID,0,VALID,18.9115,VALID,101,VALID,0,
2000-05-02, 02:40:00,VALID,917.722,VALID,0,VALID,96.0659,VALID,-0.0169808,VALID,18.9569,VALID,100,VALID,0,
2000-05-02, 02:41:01,VALID,917.73,VALID,0,VALID,96.0087,VALID,0,VALID,19.0119,VALID,100,VALID,0,
2000-05-02, 02:42:01,VALID,917.737,VALID,0,VALID,95.9769,VALID,0,VALID,19.0762,VALID,291,VALID,0,
2000-05-02, 02:43:00,VALID,917.735,VALID,0,VALID,95.7429,VALID,0.0169808,VALID,19.1346,VALID,278,VALID,0,
2000-05-02, 02:44:00,VALID,917.754,VALID,0,VALID,95.3297,VALID,0,VALID,19.1833,VALID,278,VALID,0,
2000-05-02, 02:45:00,VALID,917.741,VALID,0,VALID,94.9634,VALID,-0.0169808,VALID,19.2186,VALID,278,VALID,0,
2000-05-02, 02:46:00,VALID,917.742,VALID,0,VALID,93.6982,VALID,0,VALID,19.2022,VALID,278,VALID,0,
2000-05-02, 02:47:00,VALID,917.718,VALID,0,VALID,93.3192,VALID,0.0169808,VALID,19.1314,VALID,338,VALID,0,
2000-05-02, 02:48:00,VALID,917.71,VALID,0,VALID,93.66,VALID,0.0169808,VALID,19.0412,VALID,96,VALID,0,
2000-05-02, 02:49:01,VALID,917.677,VALID,0,VALID,93.9029,VALID,0,VALID,18.9184,VALID,95,VALID,0,
2000-05-02, 02:50:01,VALID,917.639,VALID,0,VALID,94.7396,VALID,0.0169808,VALID,18.8183,VALID,87,VALID,0,
2000-05-02, 02:51:01,VALID,917.621,VALID,0,VALID,94.8668,VALID,0.0169808,VALID,18.7306,VALID,92,VALID,0,
2000-05-02, 02:52:00,VALID,917.601,VALID,0,VALID,95.7544,VALID,0,VALID,18.7375,VALID,103,VALID,0,
2000-05-02, 02:53:00,VALID,917.596,VALID,0,VALID,96.0468,VALID,-0.0169808,VALID,18.7643,VALID,119,VALID,0,
2000-05-02, 02:54:00,VALID,917.59,VALID,0,VALID,96.1982,VALID,0,VALID,18.7929,VALID,128,VALID,0,
2000-05-02, 02:55:00,VALID,917.584,VALID,0,VALID,96.2363,VALID,-0.0169808,VALID,18.8414,VALID,137,VALID,0,
2000-05-02, 02:56:00,VALID,917.595,VALID,0,VALID,96.2528,VALID,-0.0169808,VALID,18.8998,VALID,140,VALID,0,
2000-05-02, 02:57:00,VALID,917.582,VALID,0,VALID,95.8141,VALID,0,VALID,18.948,VALID,139,VALID,0,
2000-05-02, 02:58:01,VALID,917.591,VALID,0,VALID,94.6315,VALID,0,VALID,18.9244,VALID,117,VALID,0.0496199,
2000-05-02, 02:59:01,VALID,917.613,VALID,0,VALID,94.5959,VALID,0.0169808,VALID,18.8898,VALID,102,VALID,0.656006,
2000-05-02, 03:00:01,VALID,917.605,VALID,0,VALID,95.0003,VALID,-0.0339617,VALID,18.8155,VALID,104,VALID,0.7398,
2000-05-02, 03:01:00,VALID,917.623,VALID,0,VALID,95.5725,VALID,0,VALID,18.7862,VALID,102,VALID,0.500434,
2000-05-02, 03:02:00,VALID,917.634,VALID,0,VALID,95.9794,VALID,-0.0169808,VALID,18.8058,VALID,100,VALID,0.275095,
2000-05-02, 03:03:00,VALID,917.651,VALID,0,VALID,95.9553,VALID,0,VALID,18.822,VALID,106,VALID,0.349301,
2000-05-02, 03:04:00,VALID,917.649,VALID,0,VALID,95.7684,VALID,0.0169808,VALID,18.8476,VALID,111,VALID,0.526339,
2000-05-02, 03:05:00,VALID,917.655,VALID,0,VALID,95.4772,VALID,0,VALID,18.867,VALID,116,VALID,0.269531,
2000-05-02, 03:06:01,VALID,917.682,VALID,0,VALID,95.3322,VALID,-0.0169808,VALID,18.87,VALID,106,VALID,0.671453,
2000-05-02, 03:07:01,VALID,917.685,VALID,0,VALID,95.3119,VALID,-0.0169808,VALID,18.8799,VALID,104,VALID,0.788429,
2000-05-02, 03:08:01,VALID,917.699,VALID,0,VALID,95.2114,VALID,-0.0169808,VALID,18.8898,VALID,101,VALID,0.85498,
2000-05-02, 03:09:01,VALID,917.692,VALID,0,VALID,95.0524,VALID,-0.0679233,VALID,18.8901,VALID,101,VALID,1.06988,
2000-05-02, 03:10:00,VALID,917.688,VALID,0,VALID,95.2686,VALID,-0.0339617,VALID,18.9094,VALID,89,VALID,1.43424,
2000-05-02, 03:11:00,VALID,917.667,VALID,0,VALID,94.8159,VALID,-0.0339617,VALID,19.0158,VALID,85,VALID,1.24219,
2000-05-02, 03:12:00,VALID,917.63,VALID,0,VALID,94.3581,VALID,-0.0169808,VALID,19.0742,VALID,87,VALID,1.28557,
2000-05-02, 03:13:00,VALID,917.605,VALID,0,VALID,94.0593,VALID,-0.0169808,VALID,19.0866,VALID,92,VALID,1.47969,
2000-05-02, 03:14:00,VALID,917.545,VALID,0,VALID,93.7986,VALID,-0.0509425,VALID,19.1453,VALID,87,VALID,1.52298,
2000-05-02, 03:15:01,VALID,917.509,VALID,0,VALID,93.3752,VALID,-0.0169808,VALID,19.2131,VALID,86,VALID,1.35156,
2000-05-02, 03:16:00,VALID,917.485,VALID,0,VALID,93.0624,VALID,-0.0169808,VALID,19.2618,VALID,102,VALID,0.875845,
2000-05-02, 03:17:01,VALID,917.452,VALID,0,VALID,92.8335,VALID,-0.0169808,VALID,19.2648,VALID,97,VALID,0.774902,
2000-05-02, 03:18:01,VALID,917.424,VALID,0,VALID,92.8526,VALID,-0.0339617,VALID,19.2521,VALID,99,VALID,0.531467,
2000-05-02, 03:19:00,VALID,917.394,VALID,0,VALID,92.761,VALID,-0.0509425,VALID,19.2322,VALID,98,VALID,0.407335,
2000-05-02, 03:20:00,VALID,917.353,VALID,0,VALID,93.0268,VALID,0,VALID,19.2166,VALID,92,VALID,0.877367,
2000-05-02, 03:21:01,VALID,917.317,VALID,0,VALID,93.056,VALID,-0.0169808,VALID,19.1967,VALID,94,VALID,0.848479,
2000-05-02, 03:22:00,VALID,917.321,VALID,0,VALID,93.112,VALID,-0.0339617,VALID,19.1743,VALID,92,VALID,0.657143,
2000-05-02, 03:23:00,VALID,917.306,VALID,0,VALID,93.2188,VALID,-0.118866,VALID,19.1656,VALID,94,VALID,0.399586,
2000-05-02, 03:24:01,VALID,917.304,VALID,0,VALID,93.3409,VALID,-0.118866,VALID,19.1395,VALID,94,VALID,0.0228041,
2000-05-02, 03:25:01,VALID,917.296,VALID,0,VALID,93.6143,VALID,-0.135847,VALID,19.1273,VALID,60,VALID,0,
2000-05-02, 03:26:01,VALID,917.302,VALID,0,VALID,93.7783,VALID,-0.101885,VALID,19.1338,VALID,32,VALID,0,
2000-05-02, 03:27:01,VALID,917.292,VALID,0,VALID,93.7071,VALID,-0.118866,VALID,19.1527,VALID,48,VALID,0,
2000-05-02, 03:28:01,VALID,917.291,VALID,0,VALID,93.5748,VALID,-0.118866,VALID,19.1848,VALID,69,VALID,0,
2000-05-02, 03:29:01,VALID,917.283,VALID,0,VALID,93.3625,VALID,-0.118866,VALID,19.1915,VALID,80,VALID,0,
2000-05-02, 03:30:01,VALID,917.273,VALID,0,VALID,93.1031,VALID,-0.135847,VALID,19.1855,VALID,84,VALID,0,
2000-05-02, 03:31:01,VALID,917.28,VALID,0,VALID,93.0827,VALID,-0.152827,VALID,19.1204,VALID,90,VALID,0,
2000-05-02, 03:32:01,VALID,917.287,VALID,0,VALID,93.557,VALID,-0.101885,VALID,19.0558,VALID,57,VALID,0.299173,
2000-05-02, 03:33:01,VALID,917.31,VALID,0,VALID,93.9258,VALID,-0.118866,VALID,19.0625,VALID,41,VALID,0.0926943,
2000-05-02, 03:34:01,VALID,917.305,VALID,0,VALID,93.7579,VALID,-0.118866,VALID,19.0528,VALID,42,VALID,0,
2000-05-02, 03:35:01,VALID,917.321,VALID,0,VALID,93.9843,VALID,-0.152827,VALID,19.0562,VALID,42,VALID,0,
2000-05-02, 03:36:01,VALID,917.339,VALID,0,VALID,93.8559,VALID,-0.118866,VALID,19.0207,VALID,85,VALID,0.0481771,
2000-05-02, 03:37:01,VALID,917.354,VALID,0,VALID,94.1127,VALID,-0.101885,VALID,18.9847,VALID,91,VALID,0,
2000-05-02, 03:38:01,VALID,917.366,VALID,0,VALID,94.2895,VALID,0,VALID,18.9703,VALID,95,VALID,0,